Weather in Vyazye

Russia / Pskov Oblast     57°38′12″N   29°49′29″E
temp.,
°C
wind,
m/s
gust,
m/s
humid.,
%
clouds,
%
prec.,
mm/h
press.,
hPa
HPBL,
m
17 april, sat
sat1700:00+8ene41173100 0.0 1024463
03:00+6ene4127184 0.0 1025399
06:00+5ne41275100 0.0 1025385
09:00+7ene4971100 0.0 1025440
12:00+12ene5763100 0.0 1025855
15:00+14ene5758100 0.0 10251208
18:00+14ne495993 0.0 1024889
21:00+10ne41266100 0.0 1025358
18 april, sun
sun1800:00+8ne4126699 0.0 1025412
03:00+6ne411745 0.0 1026340
06:00+4ne412823 0.0 1026353
09:00+8ene510650 0.0 1026537
12:00+12ene58495 0.0 10251199
15:00+13ne67415 0.0 10251721
18:00+13ne48455 0.0 10251859
21:00+8ne311635 0.0 1026271
19 april, mon
mon1900:00+6ene311675 0.0 1026314
03:00+5ne310795 0.0 1027299
06:00+3ne28915 0.0 1027239
09:00+7ene46735 0.0 1027554
12:00+11ene465530 0.0 10261396
15:00+11ne4657100 0.0 10261208
18:00+10ene4762100 0.0 1025845
21:00+8e397086 0.0 1025528
20 april, tue
tue2000:00+6e288197 0.0 1025282
03:00+6ene3777100 0.0 1024418
06:00+5ene3877100 0.0 1022561
09:00+5e4777100 0.0 1022763
12:00+6e4568100 0.0 10201109
15:00+9ene3652100 0.0 10181619
18:00+9ene3659100 0.0 10151261
21:00+6ene4886100 0.0 1013785
21 april, wed
wed2100:00+5ne51195100 1.0 1008864
03:00+4ne51397100 5.9 1004865
06:00+3ne51197100 3.9 1000757
09:00+3ne4997100 5.6 998512
12:00+3nne4997100 2.6 997493
15:00+4nnw3597100 6.8 996370
18:00+3wnw3697100 1.6 997523
21:00+2wsw4997100 2.0 1000430